Location: ??
(35.4627°N, 139.3695°E)
Time: 07:39:34
(UTC+00:00)

SL-16 R/B - Pass Details

Date: 25 November 2020
Orbit: 841 x 849 km, 71.0° (Epoch: 17 January)

Event Time Altitude Azimuth Distance (km) Brightness Sun altitude
Exits shadow 18:51:36 38° 160° (SSE) 1,273 3.2 -31.6°
Drops below altitude 10° 18:54:56 10° 160° (SSE) 2,457 4.9 -30.9°
Sets 18:57:22 0° 161° (SSE) 3,389 5.6 -30.4°
